TimeCDT,TemperatureF,Dew PointF,Humidity,Sea Level PressureIn,VisibilityMPH,Wind Direction,Wind SpeedMPH,Gust SpeedMPH,PrecipitationIn,Events,Conditions,WindDirDegrees,DateUTC
12:53 AM,46.9,36.0,66,29.77,10.0,West,9.2,-,N/A,,Partly Cloudy,280,2012-10-09 05:53:00
1:53 AM,46.0,35.1,66,29.77,10.0,WNW,6.9,-,N/A,,Clear,300,2012-10-09 06:53:00
3:53 AM,45.0,33.1,63,29.78,10.0,NW,11.5,-,N/A,,Overcast,320,2012-10-09 08:53:00
4:53 AM,43.0,28.9,58,29.81,10.0,NW,11.5,-,N/A,,Mostly Cloudy,310,2012-10-09 09:53:00
5:53 AM,43.0,30.9,62,29.82,10.0,WNW,11.5,-,0.00,,Overcast,300,2012-10-09 10:53:00
6:53 AM,42.1,28.9,60,29.84,10.0,WNW,13.8,21.9,0.00,,Overcast,290,2012-10-09 11:53:00
7:53 AM,39.0,25.0,57,29.85,10.0,WNW,18.4,24.2,N/A,,Clear,290,2012-10-09 12:53:00
8:53 AM,39.0,25.0,57,29.87,10.0,WNW,17.3,26.5,N/A,,Clear,290,2012-10-09 13:53:00
9:53 AM,39.9,25.0,55,29.88,10.0,WNW,20.7,32.2,N/A,,Overcast,290,2012-10-09 14:53:00
10:53 AM,39.9,27.0,60,29.90,10.0,WNW,19.6,29.9,N/A,,Overcast,300,2012-10-09 15:53:00
11:53 AM,41.0,27.0,57,29.91,10.0,NW,17.3,32.2,N/A,,Overcast,310,2012-10-09 16:53:00
12:33 PM,41.0,28.4,61,29.89,10.0,NW,23.0,27.6,N/A,,Overcast,320,2012-10-09 17:33:00
12:43 PM,41.0,28.4,61,29.90,10.0,NW,23.0,31.1,N/A,,Overcast,320,2012-10-09 17:43:00
12:50 PM,41.0,28.4,61,29.90,10.0,NNW,19.6,31.1,N/A,,Overcast,330,2012-10-09 17:50:00
12:53 PM,41.0,28.0,60,29.93,10.0,NW,21.9,31.1,N/A,,Overcast,320,2012-10-09 17:53:00
1:35 PM,42.8,26.6,53,29.91,10.0,NNW,23.0,34.5,N/A,,Overcast,340,2012-10-09 18:35:00
1:53 PM,41.0,28.0,60,29.95,10.0,NNW,24.2,33.4,N/A,,Overcast,340,2012-10-09 18:53:00
2:53 PM,42.1,26.1,53,29.96,10.0,NW,21.9,31.1,N/A,,Overcast,320,2012-10-09 19:53:00
3:53 PM,44.1,24.1,45,29.98,10.0,NNW,21.9,28.8,N/A,,Overcast,340,2012-10-09 20:53:00
4:53 PM,43.0,21.0,42,30.00,10.0,NNW,21.9,-,N/A,,Mostly Cloudy,330,2012-10-09 21:53:00
5:53 PM,43.0,21.0,42,30.02,10.0,NNW,20.7,-,N/A,,Overcast,330,2012-10-09 22:53:00
6:53 PM,41.0,21.0,45,30.04,10.0,NNW,15.0,25.3,N/A,,Overcast,330,2012-10-09 23:53:00
7:53 PM,41.0,21.0,45,30.06,10.0,NW,13.8,20.7,N/A,,Overcast,320,2012-10-10 00:53:00
8:53 PM,39.9,21.9,49,30.07,10.0,NW,10.4,-,N/A,,Overcast,310,2012-10-10 01:53:00
9:53 PM,39.9,24.1,53,30.08,10.0,NW,13.8,-,N/A,,Overcast,320,2012-10-10 02:53:00
10:53 PM,39.0,26.1,60,30.08,10.0,NW,10.4,-,N/A,,Overcast,310,2012-10-10 03:53:00
11:53 PM,39.0,28.0,65,30.08,10.0,WNW,8.1,-,N/A,,Overcast,300,2012-10-10 04:53:00